Location: Bay Harbour
(38.2612°N, 75.2555°W)
Time: 01:53:26
(UTC+00:00)

NOSS 3-3 (C) - Pass Details

Date: 29 October 2020
Orbit: 827 x 1385 km, 63.5° (Epoch: 29 November)

Event Time Altitude Azimuth Distance (km) Brightness Sun altitude
Rises 23:23:35 0° 220° (SW) 3,381 7.5 -16.1°
Reaches altitude 10° 23:25:57 10° 223° (SW) 2,481 6.8 -16.5°
Maximum altitude 23:31:37 67° 305° (NW) 986 4.2 -17.7°
Drops below altitude 10° 23:38:01 10° 28° (NNE) 2,779 6.1 -18.9°
Enters shadow 23:38:42 - 29° (NNE) 3,030 6.3 -19.0°
